Time,TemperatureF,DewpointF,PressureIn,WindDirection,WindDirectionDegrees,WindSpeedMPH,WindSpeedGustMPH,Humidity,HourlyPrecipIn,Conditions,Clouds,dailyrainin,SoftwareType,DateUTC
2013-11-12 00:00:00,48.0,32.0,29.86,SW,230,20.0,22.0,54,-99.99,,,-99.99,,2013-11-12 05:00:00,
2013-11-12 00:43:00,48.0,32.0,29.86,SW,230,20.0,22.0,54,-99.99,,,-99.99,,2013-11-12 05:43:00,
2013-11-12 00:53:00,48.0,32.0,29.86,SW,230,20.0,22.0,54,-99.99,,,-99.99,,2013-11-12 05:53:00,
2013-11-12 01:00:00,48.0,33.0,29.85,SW,230,20.0,22.0,56,-99.99,,,-99.99,,2013-11-12 06:00:00,
2013-11-12 01:42:00,48.0,33.0,29.85,SW,230,20.0,22.0,56,-99.99,,,-99.99,,2013-11-12 06:42:00,
2013-11-12 01:52:00,48.0,33.0,29.85,SW,230,20.0,22.0,56,-99.99,,,-99.99,,2013-11-12 06:52:00,
2013-11-12 02:00:00,49.0,33.0,29.85,WSW,240,31.0,37.0,54,-99.99,,,-99.99,,2013-11-12 07:00:00,
2013-11-12 02:41:00,49.0,33.0,29.85,WSW,240,31.0,37.0,54,-99.99,,,-99.99,,2013-11-12 07:41:00,
2013-11-12 02:52:00,49.0,33.0,29.85,WSW,240,31.0,37.0,54,-99.99,,,-99.99,,2013-11-12 07:52:00,
2013-11-12 03:00:00,47.0,33.0,29.85,WSW,250,28.0,30.0,58,-99.99,,,-99.99,,2013-11-12 08:00:00,
2013-11-12 03:42:00,47.0,33.0,29.85,WSW,250,28.0,30.0,58,-99.99,,,-99.99,,2013-11-12 08:42:00,
2013-11-12 03:52:00,47.0,33.0,29.85,WSW,250,28.0,30.0,58,-99.99,,,-99.99,,2013-11-12 08:52:00,
2013-11-12 04:00:00,46.0,37.0,29.85,SW,220,22.0,25.0,69,-99.99,,,-99.99,,2013-11-12 09:00:00,
2013-11-12 04:21:00,46.0,37.0,29.85,SW,220,22.0,25.0,69,-99.99,,,-99.99,,2013-11-12 09:21:00,
2013-11-12 04:33:00,46.0,37.0,29.85,SW,220,22.0,25.0,69,-99.99,,,-99.99,,2013-11-12 09:33:00,
2013-11-12 04:42:00,46.0,37.0,29.85,SW,220,22.0,25.0,69,-99.99,,,-99.99,,2013-11-12 09:42:00,
2013-11-12 04:53:00,46.0,37.0,29.85,SW,220,22.0,25.0,69,-99.99,,,-99.99,,2013-11-12 09:53:00,
2013-11-12 05:00:00,45.0,36.0,29.87,WSW,250,22.0,25.0,69,-99.99,,,-99.99,,2013-11-12 10:00:00,
2013-11-12 05:42:00,45.0,36.0,29.87,WSW,250,22.0,25.0,69,-99.99,,,-99.99,,2013-11-12 10:42:00,
2013-11-12 05:52:00,45.0,36.0,29.87,WSW,250,22.0,25.0,69,-99.99,,,-99.99,,2013-11-12 10:52:00,
2013-11-12 06:00:00,38.0,29.0,29.90,NW,310,33.0,37.0,71,-99.99,,,-99.99,,2013-11-12 11:00:00,
2013-11-12 06:42:00,38.0,29.0,29.90,NW,310,33.0,37.0,71,-99.99,,,-99.99,,2013-11-12 11:42:00,
2013-11-12 06:51:00,38.0,29.0,29.90,NW,310,33.0,37.0,71,-99.99,,,-99.99,,2013-11-12 11:51:00,
2013-11-12 07:00:00,38.0,27.0,29.94,NW,310,20.0,23.0,64,-99.99,,,-99.99,,2013-11-12 12:00:00,
2013-11-12 07:41:00,38.0,27.0,29.94,NW,310,20.0,23.0,64,-99.99,,,-99.99,,2013-11-12 12:41:00,
2013-11-12 07:52:00,38.0,27.0,29.94,NW,310,20.0,23.0,64,-99.99,,,-99.99,,2013-11-12 12:52:00,
2013-11-12 08:00:00,37.0,22.0,29.96,NW,320,30.0,32.0,54,-99.99,,,-99.99,,2013-11-12 13:00:00,
2013-11-12 08:41:00,37.0,22.0,29.96,NW,320,30.0,32.0,54,-99.99,,,-99.99,,2013-11-12 13:41:00,
2013-11-12 08:52:00,37.0,22.0,29.96,NW,320,30.0,32.0,54,-99.99,,,-99.99,,2013-11-12 13:52:00,
2013-11-12 09:00:00,35.0,19.0,29.98,NW,310,28.0,31.0,52,-99.99,,,-99.99,,2013-11-12 14:00:00,
2013-11-12 09:42:00,35.0,19.0,29.98,NW,310,28.0,31.0,52,-99.99,,,-99.99,,2013-11-12 14:42:00,
2013-11-12 09:52:00,35.0,19.0,29.98,NW,310,28.0,31.0,52,-99.99,,,-99.99,,2013-11-12 14:52:00,
2013-11-12 10:00:00,34.0,19.0,30.01,WNW,300,26.0,30.0,53,-99.99,,,-99.99,,2013-11-12 15:00:00,
2013-11-12 10:43:00,34.0,19.0,30.01,WNW,300,26.0,30.0,53,-99.99,,,-99.99,,2013-11-12 15:43:00,
2013-11-12 10:53:00,34.0,19.0,30.01,WNW,300,26.0,30.0,53,-99.99,,,-99.99,,2013-11-12 15:53:00,
2013-11-12 11:00:00,33.0,19.0,30.01,NW,320,25.0,31.0,56,-99.99,,,-99.99,,2013-11-12 16:00:00,
2013-11-12 11:42:00,33.0,19.0,30.01,NW,320,25.0,31.0,56,-99.99,,,-99.99,,2013-11-12 16:42:00,
2013-11-12 11:52:00,33.0,19.0,30.01,NW,320,25.0,31.0,56,-99.99,,,-99.99,,2013-11-12 16:52:00,
2013-11-12 12:00:00,33.0,20.0,30.01,NW,310,23.0,25.0,59,-99.99,,,-99.99,,2013-11-12 17:00:00,
2013-11-12 12:42:00,33.0,20.0,30.01,NW,310,23.0,25.0,59,-99.99,,,-99.99,,2013-11-12 17:42:00,
2013-11-12 12:52:00,33.0,20.0,30.01,NW,310,23.0,25.0,59,-99.99,,,-99.99,,2013-11-12 17:52:00,
2013-11-12 13:00:00,32.0,17.0,30.02,NW,310,25.0,30.0,53,-99.99,,,-99.99,,2013-11-12 18:00:00,
2013-11-12 13:42:00,32.0,17.0,30.02,NW,310,25.0,30.0,53,-99.99,,,-99.99,,2013-11-12 18:42:00,
2013-11-12 13:52:00,32.0,17.0,30.02,NW,310,25.0,30.0,53,-99.99,,,-99.99,,2013-11-12 18:52:00,
2013-11-12 14:00:00,32.0,15.0,30.02,NW,310,30.0,33.0,50,-99.99,,,-99.99,,2013-11-12 19:00:00,
2013-11-12 14:21:00,32.0,15.0,30.02,NW,310,30.0,33.0,50,-99.99,,,-99.99,,2013-11-12 19:21:00,
2013-11-12 14:32:00,32.0,15.0,30.02,NW,310,30.0,33.0,50,-99.99,,,-99.99,,2013-11-12 19:32:00,
2013-11-12 14:42:00,32.0,15.0,30.02,NW,310,30.0,33.0,50,-99.99,,,-99.99,,2013-11-12 19:42:00,
2013-11-12 14:52:00,32.0,15.0,30.02,NW,310,30.0,33.0,50,-99.99,,,-99.99,,2013-11-12 19:52:00,
2013-11-12 15:00:00,32.0,17.0,30.05,NW,310,21.0,25.0,52,-99.99,,,-99.99,,2013-11-12 20:00:00,
2013-11-12 15:42:00,32.0,17.0,30.05,NW,310,21.0,25.0,52,-99.99,,,-99.99,,2013-11-12 20:42:00,
2013-11-12 15:52:00,32.0,17.0,30.05,NW,310,21.0,25.0,52,-99.99,,,-99.99,,2013-11-12 20:52:00,
2013-11-12 16:00:00,33.0,16.0,30.06,NW,310,26.0,31.0,48,-99.99,,,-99.99,,2013-11-12 21:00:00,
2013-11-12 16:43:00,33.0,16.0,30.06,NW,310,26.0,31.0,48,-99.99,,,-99.99,,2013-11-12 21:43:00,
2013-11-12 16:54:00,33.0,16.0,30.06,NW,310,26.0,31.0,48,-99.99,,,-99.99,,2013-11-12 21:54:00,
2013-11-12 17:00:00,33.0,16.0,30.09,NW,310,24.0,28.0,49,-99.99,,,-99.99,,2013-11-12 22:00:00,
2013-11-12 17:43:00,33.0,16.0,30.09,NW,310,24.0,28.0,49,-99.99,,,-99.99,,2013-11-12 22:43:00,
2013-11-12 17:54:00,33.0,16.0,30.09,NW,310,24.0,28.0,49,-99.99,,,-99.99,,2013-11-12 22:54:00,
2013-11-12 18:00:00,33.0,17.0,30.10,NW,320,26.0,33.0,51,-99.99,,,-99.99,,2013-11-12 23:00:00,
2013-11-12 18:23:00,33.0,17.0,30.10,NW,320,26.0,33.0,51,-99.99,,,-99.99,,2013-11-12 23:23:00,
2013-11-12 18:33:00,33.0,17.0,30.10,NW,320,26.0,33.0,51,-99.99,,,-99.99,,2013-11-12 23:33:00,
2013-11-12 18:42:00,33.0,17.0,30.10,NW,320,26.0,33.0,51,-99.99,,,-99.99,,2013-11-12 23:42:00,
2013-11-12 18:53:00,33.0,17.0,30.10,NW,320,26.0,33.0,51,-99.99,,,-99.99,,2013-11-12 23:53:00,
2013-11-12 19:00:00,32.0,16.0,30.11,NW,310,24.0,30.0,52,-99.99,,,-99.99,,2013-11-13 00:00:00,
2013-11-12 19:42:00,32.0,16.0,30.11,NW,310,24.0,30.0,52,-99.99,,,-99.99,,2013-11-13 00:42:00,
2013-11-12 19:52:00,32.0,16.0,30.11,NW,310,24.0,30.0,52,-99.99,,,-99.99,,2013-11-13 00:52:00,
2013-11-12 20:00:00,32.0,15.0,30.11,WNW,300,25.0,29.0,49,-99.99,,,-99.99,,2013-11-13 01:00:00,
2013-11-12 20:42:00,32.0,15.0,30.11,WNW,300,25.0,29.0,49,-99.99,,,-99.99,,2013-11-13 01:42:00,
2013-11-12 20:52:00,32.0,15.0,30.11,WNW,300,25.0,29.0,49,-99.99,,,-99.99,,2013-11-13 01:52:00,
2013-11-12 21:00:00,32.0,16.0,30.13,WNW,300,23.0,26.0,52,-99.99,,,-99.99,,2013-11-13 02:00:00,
2013-11-12 21:42:00,32.0,16.0,30.13,WNW,300,23.0,26.0,52,-99.99,,,-99.99,,2013-11-13 02:42:00,
2013-11-12 21:52:00,32.0,16.0,30.13,WNW,300,23.0,26.0,52,-99.99,,,-99.99,,2013-11-13 02:52:00,
2013-11-12 22:00:00,31.0,15.0,30.13,West,280,22.0,25.0,50,-99.99,,,-99.99,,2013-11-13 03:00:00,
2013-11-12 22:44:00,31.0,15.0,30.13,West,280,22.0,25.0,50,-99.99,,,-99.99,,2013-11-13 03:44:00,
2013-11-12 22:54:00,31.0,15.0,30.13,West,280,22.0,25.0,50,-99.99,,,-99.99,,2013-11-13 03:54:00,
2013-11-12 23:00:00,30.0,14.0,30.12,WNW,300,29.0,33.0,49,-99.99,,,-99.99,,2013-11-13 04:00:00,
2013-11-12 23:42:00,30.0,14.0,30.12,WNW,300,29.0,33.0,49,-99.99,,,-99.99,,2013-11-13 04:42:00,
2013-11-12 23:53:00,30.0,14.0,30.12,WNW,300,29.0,33.0,49,-99.99,,,-99.99,,2013-11-13 04:53:00,